FW3102 Weather Reports


time (UTC)temp
C
wind
direction
speed
KPH
gust
KPH
rain 1hr
cm
rain 24hr
cm
rain mn
cm
humidity
%
barometer
mb
20260507143036 13 308 1.6 9.7 0.00 0.00 0.00 50 1006.1
20260507141532 12 293 1.6 9.7 0.00 0.00 0.00 53 1006.0
20260507140029 12 300 1.6 8.0 0.00 0.00 0.00 53 1006.0
20260507134527 12 280 1.6 9.7 0.00 0.00 0.00 54 1005.8
20260507133028 12 39 1.6 4.8 0.00 0.00 0.00 56 1005.7
20260507131525 11 302 1.6 8.0 0.00 0.00 0.00 58 1005.8
20260507130022 11 355 1.6 6.4 0.00 0.00 0.00 60 1005.6
20260507124530 10 41 0.0 3.2 0.00 0.00 0.00 63 1005.3
20260507123023 10 297 0.0 1.6 0.00 0.00 0.00 65 1005.2
20260507121520 10 219 0.0 1.6 0.00 0.00 0.00 66 1005.1
20260507120019 10 269 0.0 1.6 0.00 0.00 0.00 65 1005.0
20260507114515 10 217 0.0 3.2 0.00 0.00 0.00 65 1005.0
20260507113034 11 229 0.0 3.2 0.00 0.00 0.00 65 1004.8
20260507111616 11 209 0.0 1.6 0.00 0.00 0.00 66 1004.7
20260507110015 11 208 0.0 1.6 0.00 0.00 0.00 67 1004.7
20260507104513 11 209 0.0 1.6 0.00 0.00 0.00 67 1004.7
20260507103012 11 208 0.0 1.6 0.00 0.00 0.00 66 1004.6
20260507101515 11 209 0.0 3.2 0.00 0.00 0.00 65 1004.6
20260507100007 11 209 0.0 1.6 0.00 0.00 0.00 65 1004.5
20260507094506 11 210 0.0 1.6 0.00 0.00 0.00 65 1004.5
20260507093005 11 224 0.0 1.6 0.00 0.00 0.00 64 1004.6
20260507091506 12 219 0.0 3.2 0.00 0.00 0.00 63 1004.4
20260507090005 11 219 0.0 1.6 0.00 0.00 0.00 64 1004.5
20260507084506 11 219 0.0 0.0 0.00 0.00 0.00 65 1004.5
20260507083003 11 219 0.0 1.6 0.00 0.00 0.00 65 1004.4
20260507081506 11 219 0.0 1.6 0.00 0.00 0.00 66 1004.5
20260507080105 11 219 0.0 1.6 0.00 0.00 0.00 66 1004.5
20260507074603 12 220 0.0 1.6 0.00 0.00 0.00 66 1004.7
20260507073100 12 220 0.0 1.6 0.00 0.00 0.00 65 1004.9
20260507071555 12 219 0.0 1.6 0.00 0.00 0.00 65 1004.8
20260507070054 12 219 0.0 1.6 0.00 0.00 0.00 64 1004.9
20260507064553 12 289 0.0 1.6 0.00 0.00 0.00 62 1005.0
20260507063049 13 302 0.0 0.0 0.00 0.00 0.00 60 1004.9
20260507061547 13 302 0.0 4.8 0.00 0.00 0.00 59 1005.1
20260507060045 13 275 0.0 1.6 0.00 0.00 0.00 60 1005.3
20260507054543 13 302 0.0 1.6 0.00 0.00 0.00 60 1005.2
20260507053043 13 319 0.0 3.2 0.00 0.00 0.00 60 1005.0
20260507051543 13 284 0.0 3.2 0.00 0.00 0.00 60 1005.5
20260507050043 13 200 0.0 1.6 0.00 0.00 0.00 61 1005.1
20260507044548 13 196 0.0 0.0 0.00 0.00 0.00 61 1005.0
20260507043055 13 197 0.0 0.0 0.00 0.00 0.00 60 1004.9
20260507041540 13 185 0.0 0.0 0.00 0.00 0.00 58 1004.8
20260507040041 14 184 0.0 0.0 0.00 0.00 0.00 58 1004.8
20260507034541 14 150 0.0 3.2 0.00 0.00 0.00 56 1004.5
20260507033039 15 130 0.0 1.6 0.00 0.00 0.00 52 1004.3
20260507031542 16 130 0.0 4.8 0.00 0.00 0.00 46 1004.0
20260507030036 16 139 0.0 1.6 0.00 0.00 0.00 42 1004.9
20260507024536 16 185 0.0 3.2 0.00 0.00 0.00 41 1004.7
20260507023035 16 52 1.6 8.0 0.00 0.00 0.00 37 1004.7
20260507021538 17 165 0.0 3.2 0.00 0.00 0.00 33 1005.2
20260507020046 17 182 0.0 0.0 0.00 0.00 0.00 32 1004.7
20260507014535 17 182 0.0 4.8 0.00 0.00 0.00 30 1004.3
20260507013033 18 39 0.0 1.6 0.00 0.00 0.00 30 1003.8
20260507011543 18 336 0.0 1.6 0.00 0.00 0.00 29 1003.7
20260507010036 18 20 0.0 1.6 0.00 0.00 0.00 28 1003.9
20260507004532 19 211 0.0 1.6 0.00 0.00 0.00 28 1003.8
20260507003031 20 40 0.0 3.2 0.00 0.00 0.00 28 1003.7
20260507001602 20 68 0.0 3.2 0.00 0.00 0.00 27 1003.7
20260507000035 20 41 1.6 6.4 0.00 0.00 0.00 27 1003.8
20260506234528 19 37 1.6 4.8 0.00 0.00 0.00 27 1003.6
20260506233028 19 38 1.6 8.0 0.00 0.00 0.00 27 1003.7
20260506231527 20 15 1.6 6.4 0.00 0.00 0.00 26 1003.6
20260506230035 20 37 1.6 8.0 0.00 0.00 0.00 27 1003.8
20260506224523 20 41 0.0 6.4 0.00 0.00 0.00 27 1003.9
20260506223028 20 24 1.6 6.4 0.00 0.00 0.00 26 1004.2
20260506221520 19 32 3.2 11.3 0.00 0.00 0.00 26 1004.3
20260506220017 20 17 1.6 6.4 0.00 0.00 0.00 26 1004.6
20260506214514 20 200 0.0 8.0 0.00 0.00 0.00 28 1004.7
20260506213012 20 37 0.0 6.4 0.00 0.00 0.00 26 1005.1
20260506211509 20 129 1.6 8.0 0.00 0.00 0.00 26 1005.3
20260506210009 20 210 1.6 11.3 0.00 0.00 0.00 27 1005.5
20260506204505 20 41 0.0 8.0 0.00 0.00 0.00 26 1005.4
20260506203002 19 31 3.2 8.0 0.00 0.00 0.00 27 1005.5
20260506201559 18 317 0.0 11.3 0.00 0.00 0.00 27 1005.8
20260506200101 18 35 1.6 9.7 0.00 0.00 0.00 27 1005.9
20260506194555 18 37 3.2 8.0 0.00 0.00 0.00 28 1006.1
20260506193056 17 217 0.0 8.0 0.00 0.00 0.00 28 1006.3
20260506191547 17 196 1.6 8.0 0.00 0.00 0.00 30 1006.5
20260506190050 16 134 3.2 11.3 0.00 0.00 0.00 30 1006.8
20260506184547 16 224 1.6 11.3 0.00 0.00 0.00 31 1006.9
20260506183044 16 186 1.6 9.7 0.00 0.00 0.00 32 1007.2
20260506181542 16 146 1.6 14.5 0.00 0.00 0.00 32 1007.3
20260506180036 16 215 1.6 11.3 0.00 0.00 0.00 32 1007.4
20260506174536 15 195 1.6 12.9 0.00 0.00 0.00 32 1007.6
20260506173028 14 275 0.0 12.9 0.00 0.00 0.00 35 1008.0
20260506171532 13 105 1.6 8.0 0.00 0.00 0.00 35 1008.3
20260506170029 13 139 3.2 9.7 0.00 0.00 0.00 36 1008.5
20260506164541 13 142 0.0 6.4 0.00 0.00 0.00 37 1008.6
20260506163019 13 193 1.6 6.4 0.00 0.00 0.00 37 1008.7
20260506161514 12 179 1.6 9.7 0.00 0.00 0.00 38 1008.9
20260506160011 12 190 1.6 9.7 0.00 0.00 0.00 39 1009.2
20260506154506 11 176 0.0 12.9 0.00 0.00 0.00 41 1009.5
20260506153003 10 207 1.6 6.4 0.00 0.00 0.00 42 1009.6
20260506151604 9 209 0.0 8.0 0.00 0.00 0.00 43 1009.8
20260506150104 8 199 0.0 4.8 0.00 0.00 0.00 43 1010.0
20260506144551 7 128 1.6 9.7 0.00 0.00 0.00 46 1010.2